Theta_e
322 322 322 322 322 322 322 322 322 322 322 323 323 323 323 323 321 314 307 316 318 331 328 309 307 308 305 302 302 298 293 289 292 296 301 307 312 318 323 318 323 323 325 329 337
320 321 321 322 322 321 321 321 322 322 322 322 322 322 322 322 311 307 321 336 337 331 307 306 304 307 303 300 300 297 291 294 298 301 301 299 314 318 319 319 323 324 330 333 335
320 320 321 321 321 321 321 321 321 322 322 322 322 322 322 320 306 310 334 339 337 324 309 308 307 305 299 298 298 296 295 298 302 306 303 300 304 317 317 314 320 322 326 331 331
319 320 320 321 320 320 320 321 321 322 322 321 321 322 322 313 297 311 338 340 336 314 308 305 303 300 297 296 299 294 300 300 302 305 302 302 316 316 318 319 328 329 331 331 328
318 319 319 320 319 319 320 320 321 321 321 320 321 322 313 304 306 316 340 341 318 310 306 303 301 298 298 296 299 297 301 303 305 308 317 319 316 316 317 324 327 328 327 326 328
318 318 318 319 319 319 319 319 318 319 319 320 322 322 307 298 312 316 314 315 311 307 304 305 302 303 298 297 296 300 300 302 303 319 321 317 317 318 321 324 322 324 323 324 325
317 318 318 318 319 319 318 318 317 318 320 321 322 319 307 302 312 313 312 306 309 310 307 307 306 302 299 299 300 301 299 300 304 303 317 320 315 317 323 322 321 321 322 324 325
317 316 317 317 318 318 318 318 318 319 320 321 323 312 300 311 315 315 308 310 310 310 309 309 307 302 297 300 301 297 296 292 305 313 319 318 313 321 325 323 319 320 320 323 323
316 316 316 317 317 318 318 317 318 319 321 323 310 304 305 319 313 315 312 311 310 310 309 312 304 299 300 296 294 295 292 293 306 318 316 315 313 320 324 320 318 317 318 320 322
315 315 315 316 317 317 316 316 318 318 319 321 317 304 308 310 313 313 310 312 308 307 306 305 300 297 295 294 289 292 294 299 305 314 315 312 313 317 319 318 317 317 317 319 319
315 314 315 315 316 315 311 311 309 307 309 306 307 308 310 314 314 310 311 308 307 304 297 300 297 295 296 297 298 299 298 304 312 314 312 312 311 312 316 316 316 316 316 316 318
314 314 315 315 315 314 308 307 312 310 305 311 312 311 314 313 310 311 311 303 304 299 301 298 295 300 303 302 301 299 296 298 308 311 308 308 309 314 315 314 315 315 316 314 314
313 313 314 315 314 308 307 311 315 311 302 309 312 312 313 313 308 308 309 305 303 301 299 296 299 306 304 300 300 296 295 295 300 309 310 307 305 307 311 314 314 314 315 315 314
312 312 313 312 308 307 306 312 310 312 301 308 310 313 312 308 306 311 310 306 304 300 300 300 304 304 302 301 299 295 300 300 306 296 295 304 293 305 307 306 308 308 309 310 311
311 312 313 310 300 306 310 309 310 314 291 310 304 310 307 305 306 307 310 308 302 303 302 299 303 302 301 302 303 299 302 299 298 292 293 298 295 302 306 303 305 307 308 308 309
311 312 312 310 305 308 312 311 312 300 293 304 305 303 302 303 305 308 308 310 308 306 306 305 309 307 305 306 305 304 299 296 293 290 286 294 296 300 304 304 305 306 306 305 303
310 311 308 311 304 308 312 310 299 293 306 303 301 302 300 301 304 305 306 304 299 295 296 303 303 307 308 301 303 300 292 286 286 285 284 297 295 302 306 307 307 304 301 303 303
309 309 308 311 307 311 311 303 293 302 303 308 306 304 302 305 304 306 304 301 305 301 296 296 294 302 306 300 297 295 292 287 282 283 285 299 294 300 307 308 307 305 302 303 304
307 309 309 312 314 312 307 296 296 303 306 305 305 302 300 306 305 306 303 303 305 303 296 295 297 306 306 304 301 296 293 293 289 288 286 294 300 305 306 305 305 303 303 302 301
308 311 310 313 313 310 302 298 302 307 307 306 299 303 298 302 303 302 303 307 307 308 304 301 294 304 305 305 303 300 301 292 290 284 282 291 293 295 302 302 303 302 301 301 302
312 307 312 310 310 302 294 299 305 307 307 304 302 301 303 302 303 303 302 306 310 307 305 300 296 298 300 297 295 296 295 294 292 289 284 283 288 302 306 304 302 304 301 301 301
305 301 312 309 300 297 297 304 306 306 308 307 305 303 303 302 302 301 301 304 310 308 300 301 294 290 294 302 302 300 296 294 288 288 289 288 287 303 301 302 302 303 303 306 303
302 305 315 312 299 298 303 306 305 304 303 303 303 305 305 302 298 304 303 309 310 307 302 299 294 289 292 296 298 298 300 296 294 291 288 285 287 302 305 305 305 304 302 299 300
305 300 304 304 303 300 299 300 302 308 308 309 306 306 303 302 303 301 304 311 313 311 315 308 296 292 288 291 295 297 301 300 293 287 290 293 294 297 300 302 302 301 299 298 298
302 299 301 296 299 299 298 301 301 302 307 309 305 305 303 299 299 301 305 306 310 313 307 300 293 295 296 301 302 301 299 299 297 297 292 295 294 296 298 299 302 299 298 298 298
300 299 302 300 300 299 297 297 302 305 304 305 303 306 304 299 299 297 303 300 299 304 300 299 292 295 296 301 301 298 300 300 299 298 296 294 292 299 297 299 297 295 297 297 297
302 303 302 300 302 299 299 301 304 306 309 310 308 305 303 303 307 305 303 303 301 300 298 298 295 292 289 298 297 292 297 298 297 297 295 289 293 296 297 296 293 294 295 295 297
Wind_Speed
9 9 10 10 10 9 9 10 10 10 10 11 12 13 12 13 15 2 6 10 5 3 3 2 1 3 3 1 3 5 5 3 5 3 6 4 4 5 3 8 5 5 5 16 21
8 9 10 10 10 10 10 10 10 10 11 11 12 12 12 11 3 5 12 5 5 5 2 5 5 7 4 2 2 6 4 7 6 3 5 1 8 10 7 8 8 17 18 21 17
9 9 9 10 10 10 9 10 10 10 10 11 12 12 12 8 5 7 4 4 8 4 2 0 1 2 2 1 3 4 6 6 9 9 5 1 5 7 10 5 2 20 19 19 18
8 9 10 10 10 9 10 10 9 10 9 10 11 12 14 0 0 5 6 11 7 5 1 2 4 4 2 2 2 1 8 5 7 5 4 6 9 14 15 11 18 16 16 17 18
9 10 11 10 10 9 10 9 9 9 9 9 10 11 4 4 9 7 7 9 6 5 3 1 2 1 2 3 5 2 5 4 9 15 14 27 25 15 21 18 19 20 21 18 12
11 11 11 11 10 10 10 10 9 9 8 8 9 9 2 3 5 5 3 4 5 4 3 4 3 4 2 4 2 5 5 6 7 20 16 27 17 9 13 15 21 20 20 17 15
11 11 11 10 10 10 10 9 8 8 8 7 7 3 1 14 2 7 4 2 3 4 3 5 5 5 4 9 2 4 7 8 18 3 7 6 27 17 12 17 19 18 14 13 11
11 11 11 10 9 9 9 8 8 7 7 7 4 1 9 5 4 9 3 8 5 6 4 7 5 4 1 4 9 8 8 8 11 9 11 14 10 11 8 15 20 17 13 11 13
12 12 11 11 10 9 8 8 7 5 3 1 1 2 11 6 0 7 6 7 5 5 4 3 2 1 6 4 7 8 5 6 9 18 5 11 11 12 12 14 17 15 15 13 13
14 12 11 12 11 10 9 4 3 4 0 3 4 3 6 5 5 4 6 3 4 4 6 7 6 3 5 6 0 2 5 7 8 11 25 21 17 14 13 14 12 12 14 15 13
16 14 11 11 11 9 3 3 5 2 2 7 5 5 8 6 4 4 4 4 1 4 0 5 4 4 1 3 1 1 5 12 10 11 18 16 17 12 11 11 12 11 9 10 12
17 16 14 10 10 5 0 2 4 1 7 10 5 6 6 2 5 5 3 2 1 4 1 6 2 5 4 7 4 7 6 10 11 10 17 15 16 13 10 9 8 8 7 8 9
18 17 15 13 8 1 1 6 3 1 1 8 5 4 4 6 5 7 6 3 1 6 5 5 5 8 7 4 11 4 6 2 10 19 17 20 10 9 9 10 9 9 7 8 6
18 17 15 16 2 3 5 4 6 5 5 7 3 5 3 4 4 2 3 3 4 3 4 7 6 10 9 6 4 7 3 7 21 6 6 6 6 5 8 6 5 3 4 2 3
19 16 13 5 1 1 5 7 2 6 4 2 3 1 2 5 2 3 2 4 3 3 8 1 3 7 8 2 3 3 2 4 4 4 6 3 6 7 11 6 5 2 1 1 1
20 15 10 1 1 5 8 6 5 7 2 3 3 3 2 1 1 5 5 7 3 8 5 1 1 3 1 1 3 2 4 7 5 4 5 5 5 3 3 5 4 3 4 2 3
23 14 3 1 3 4 4 6 6 3 4 7 4 1 1 2 3 3 4 6 2 4 5 7 7 4 5 7 7 9 8 5 6 6 3 3 7 4 5 5 6 6 6 7 6
25 11 6 4 2 5 5 7 6 3 3 4 6 6 5 4 4 3 3 5 7 5 4 3 7 7 9 4 2 3 5 6 4 3 3 5 4 4 5 5 4 4 7 5 5
19 3 2 3 3 4 7 5 3 2 4 6 5 8 6 5 5 6 4 5 5 5 6 3 0 5 6 5 4 5 5 2 4 2 5 3 4 3 4 5 6 6 5 5 4
3 3 4 8 2 6 7 4 3 3 1 6 4 3 5 7 6 5 4 5 3 7 1 1 2 3 2 8 9 6 3 6 5 3 2 1 2 3 11 8 5 6 6 5 5
4 5 4 7 5 7 4 5 4 4 4 5 3 5 2 4 2 3 5 4 7 4 9 3 4 7 5 5 3 7 6 4 5 3 4 3 6 3 2 6 8 6 6 6 4
3 4 5 3 6 1 1 2 6 5 8 6 5 4 4 6 8 5 4 3 8 3 5 4 4 2 2 2 4 5 3 3 5 2 2 3 6 5 3 1 4 4 4 1 5
3 3 4 5 4 4 6 4 3 5 7 5 6 5 6 5 4 3 4 6 8 6 2 0 5 4 10 6 6 7 5 3 4 3 2 4 4 3 3 1 2 2 6 7 6
3 4 6 6 2 2 5 5 5 6 5 6 4 4 5 8 7 3 3 5 5 4 8 9 3 6 5 6 1 4 5 4 4 3 2 2 2 1 2 4 3 7 7 5 5
5 1 2 4 5 4 2 3 5 4 4 8 7 6 4 5 6 4 3 3 6 6 6 5 3 2 2 6 5 4 5 8 6 1 3 2 1 2 2 3 3 8 5 7 6
3 3 5 2 4 5 5 4 2 3 5 4 8 3 8 6 2 2 2 1 2 5 4 4 1 3 5 8 7 9 6 6 4 4 4 2 3 4 5 10 8 5 6 6 4
3 2 3 5 6 4 3 4 1 3 9 5 5 5 8 2 5 6 4 2 0 6 2 3 4 3 2 4 2 5 4 4 3 4 1 2 1 4 4 7 4 5 5 4 4
Wind_Direction
309 313 304 295 290 293 298 298 309 311 307 311 311 311 314 318 310 158 256 217 151 123 113 294 315 343 65 89 173 144 51 286 256 277 262 163 101 22 90 87 43 33 71 113 117
313 307 296 292 292 290 292 301 302 306 307 311 306 310 317 330 307 255 252 218 187 155 5 30 344 345 2 277 154 108 137 231 216 223 289 342 136 144 124 96 91 89 87 109 110
318 307 297 291 286 285 294 293 297 298 303 307 306 314 319 323 334 257 238 214 135 158 110 9 13 42 348 337 211 170 211 180 253 259 218 198 65 30 78 47 308 131 119 109 104
322 308 303 292 287 293 290 288 292 297 302 304 309 314 318 324 254 263 96 102 133 119 56 356 12 12 301 333 303 304 257 191 274 242 26 34 58 65 37 48 85 86 91 96 88
325 316 306 295 290 288 284 288 288 292 294 296 312 326 342 351 254 266 114 128 127 122 203 208 350 134 345 333 321 211 300 332 321 67 80 79 61 73 53 60 71 75 78 91 101
326 314 301 297 290 287 285 277 277 279 282 299 309 313 346 299 250 304 173 138 139 152 170 163 244 222 259 292 186 270 257 265 80 80 59 75 43 72 41 63 63 64 74 77 85
320 311 308 301 290 281 271 272 275 279 288 294 299 294 97 239 279 347 155 239 168 177 281 198 168 26 322 323 282 275 322 13 20 9 150 60 41 63 69 77 76 72 66 75 74
326 319 312 303 286 280 279 282 280 282 287 278 295 235 252 257 360 310 124 295 249 211 201 237 207 258 68 311 357 22 40 36 5 48 5 78 86 78 72 76 72 68 71 76 98
335 322 318 316 312 298 290 287 279 288 282 80 252 195 272 315 305 252 153 235 346 304 279 265 112 107 21 49 13 7 59 28 27 8 108 82 107 71 69 73 76 69 69 68 79
336 325 324 319 314 308 305 272 26 341 170 194 258 344 283 305 282 234 195 150 251 300 1 35 48 36 50 53 89 298 66 50 64 39 73 84 90 72 59 66 75 75 70 71 71
334 328 327 315 311 319 353 85 25 9 209 210 217 237 266 279 277 275 136 139 167 56 224 342 57 255 161 222 103 183 98 105 115 120 73 89 89 68 65 67 70 73 80 83 88
333 331 329 318 306 309 238 97 209 219 315 230 240 264 267 118 310 302 98 112 50 287 160 20 352 276 76 106 137 62 54 88 69 88 96 104 85 71 81 72 75 90 70 74 76
336 331 328 323 312 172 158 237 90 220 100 297 195 206 236 136 234 277 123 187 303 360 39 81 335 94 97 81 68 47 81 35 112 88 112 118 89 95 76 80 57 47 50 48 52
336 330 328 326 21 300 294 285 331 168 58 285 284 274 173 186 285 255 185 150 26 358 103 70 315 93 72 67 122 49 316 127 148 132 184 206 132 138 125 96 65 39 23 55 106
337 330 326 325 228 16 283 324 310 57 51 231 246 210 63 148 265 311 186 53 49 6 87 352 24 69 76 102 83 221 356 61 136 109 99 83 91 155 154 157 162 182 249 331 316
335 328 323 220 356 250 309 331 53 42 313 326 204 204 120 265 284 323 27 35 107 74 35 41 250 35 47 65 39 55 40 34 58 81 60 297 128 143 172 153 150 204 217 213 245
330 324 263 338 229 317 331 44 45 108 324 316 258 79 218 297 274 74 25 17 82 80 19 357 355 324 53 29 6 51 47 350 357 7 219 260 56 79 115 144 175 198 217 226 242
328 318 202 230 8 359 49 52 66 276 316 311 11 81 47 323 2 77 61 33 16 73 88 105 351 8 334 68 302 355 130 156 246 214 227 15 96 126 132 119 123 175 221 226 238
321 333 330 293 153 67 67 54 204 286 296 345 21 51 349 342 103 81 47 39 19 4 114 102 56 335 45 34 45 324 22 264 99 25 74 40 90 154 168 209 186 202 216 228 269
30 0 326 312 85 59 71 225 252 239 339 51 79 41 19 345 52 61 35 343 22 8 80 98 76 9 343 33 14 76 265 13 10 345 21 101 213 209 206 216 213 229 240 244 253
38 46 270 333 56 48 135 237 291 328 80 61 42 53 66 350 60 62 350 346 0 4 59 76 84 300 44 55 356 356 5 34 108 103 157 186 248 195 156 170 200 217 228 218 224
47 51 301 21 52 34 136 252 294 349 31 49 83 82 58 13 20 68 93 318 336 335 44 344 122 26 266 308 11 86 10 67 120 260 67 138 280 41 51 110 165 206 209 139 95
61 271 322 66 73 332 315 331 49 36 22 45 26 20 64 27 82 56 62 343 5 59 81 343 25 15 346 357 16 49 356 40 96 79 177 129 281 26 37 105 205 236 82 90 84
62 30 331 38 47 36 1 346 13 11 68 84 4 47 69 19 14 106 80 19 354 87 65 76 88 145 194 235 128 24 353 4 87 85 198 178 342 319 260 259 284 65 94 78 77
29 6 178 348 343 350 360 341 5 21 66 38 26 30 116 63 17 39 64 31 11 22 41 83 88 65 5 97 90 75 56 34 58 68 103 130 314 270 310 317 45 118 101 85 77
76 36 357 335 302 2 7 10 41 24 39 8 106 56 62 98 81 4 101 106 185 18 53 9 73 77 41 91 84 70 52 80 67 50 65 78 56 75 73 83 72 80 85 77 43
328 350 96 308 349 32 319 301 360 102 7 76 139 83 46 344 202 221 222 215 211 146 111 73 109 63 157 164 37 32 23 47 42 18 142 223 196 165 87 84 95 89 79 60 13